Vertical_Velocity
-0 -0 1 -1 -0 0 -1 -1 -2 -1 -1 -1 -1 -1 0 -0 -2 -2 -2 -2 -1 -2 -4 -3 -3 -2 -1 -0 -1 -1 -1 -1 2 -2 -1 3 0 3 2 1 1 -1 4 -2 -1 1 1
-1 -0 0 -2 -1 -1 -1 -0 -2 -2 -1 0 -0 -0 -0 -1 -1 -1 -2 -1 -2 -2 -2 -1 -1 -2 -3 -2 -4 -3 -1 -1 1 -2 -1 1 4 1 3 1 1 -3 -5 -4 -10 8 -3
-0 -1 1 -0 -2 -0 -0 0 -2 -1 -2 -0 1 0 -0 -0 -0 -1 -2 -1 -1 -2 -2 -1 -0 -2 -2 -1 -3 -1 0 0 -3 -3 -3 -2 1 3 4 0 -2 -9 1 1 -5 5 1
-0 -1 0 -0 -1 -1 -1 -2 -1 -1 -0 -0 1 1 0 -0 -1 -1 -1 -0 -1 -2 -1 -1 0 0 -1 -0 -1 0 -1 2 -1 -0 -1 0 -1 -1 -1 4 4 3 -8 5 4 5 0
-1 1 -0 -0 0 -0 -2 -1 0 -2 -0 1 1 1 -1 0 -0 -1 -1 1 -1 -2 -1 -0 -3 -4 -7 -1 -1 -1 -0 -1 2 1 -0 -5 -2 2 1 3 6 5 5 -5 3 3 5
1 0 0 -2 -0 -1 -0 -1 1 -0 -1 0 0 1 -1 0 1 -0 -0 0 -1 -2 -1 -2 -4 -3 -3 -1 -2 -4 -3 -0 -1 -1 2 8 -2 6 2 -3 -1 -4 -4 -0 -0 -2 -2
-1 1 1 -1 -2 1 -0 -0 -1 0 -0 0 0 -0 -0 -1 -0 1 0 -1 -1 -2 -2 -4 -1 -2 1 -2 -1 -0 -1 -2 2 -0 0 -0 -3 -1 5 -5 -5 8 5 3 4 -0 0
-2 0 -0 1 -1 -0 -0 -0 -1 2 -0 -0 0 1 -1 -1 -0 0 1 0 -0 -1 -4 -2 -1 -2 -1 0 -5 -0 -1 -1 0 0 -2 -1 8 5 10 6 11 11 3 1 1 11 4
-2 -1 -1 -0 0 -1 1 -0 -2 -0 1 -1 0 0 0 -0 -1 -0 -0 1 0 0 -2 -2 -2 -2 -1 1 -1 -1 -1 -0 1 2 2 1 -1 -1 1 -1 -4 -1 -8 -2 -1 -1 2
-3 -2 -1 0 -0 0 0 1 -0 -2 -0 1 -0 -0 0 -1 -1 -1 -1 0 2 0 -1 -1 -4 -5 -2 0 -1 0 -3 -6 -1 -2 -1 -1 1 -1 -2 0 3 1 4 -5 2 0 -3
-4 -4 -1 -1 -1 -1 0 0 1 -0 -2 -0 0 -0 1 -0 1 -1 -1 -0 1 -0 -7 -1 -1 -5 -3 -2 -0 1 3 -1 -1 2 -2 -1 0 -1 -1 -1 -2 0 2 -0 0 5 -1
-2 -4 -2 -1 -1 -0 -1 -0 -0 0 -2 -2 0 1 -1 2 1 0 -1 -2 0 -0 -6 -1 -3 0 -3 -2 -1 -0 1 4 1 -1 -3 0 2 -0 -2 -0 1 1 3 1 4 2 -0
-0 -3 -3 0 -1 -1 -1 -1 -1 0 -1 -1 -1 -0 -0 0 -0 2 -0 -3 -2 -1 -1 -1 -1 -1 -1 -6 -2 -2 -1 1 0 1 -2 -1 -4 -1 3 2 2 0 -2 -4 -5 -3 -5
-1 -5 -4 -4 0 -1 -0 0 -1 -2 -1 -1 -1 -1 -1 0 1 1 2 -0 -2 -1 1 -1 0 -4 2 -1 -3 -3 -2 -1 -2 2 1 -2 -7 -5 -3 -5 -2 -4 -2 -3 -3 -2 -3
3 1 -2 -4 -2 -1 -1 -0 0 -1 -1 -2 -1 -0 -1 -2 -0 -0 -0 1 -1 -2 -2 2 -0 1 -4 2 -2 -2 -5 -2 -1 1 2 -0 -1 -1 -3 -3 -3 -5 -1 -1 -0 0 -1
0 1 0 -1 -2 -1 -1 -2 -1 -0 -1 -1 -2 -1 1 -3 1 -1 1 -0 -1 1 -1 -3 2 -0 -0 -2 2 -2 -0 -1 -3 -0 -2 2 -0 2 1 -5 -3 -2 4 -2 -0 -2 -1
3 0 -0 -1 -1 -0 -1 -1 -2 -1 -1 -1 -1 -3 1 1 -1 0 -1 1 -1 -0 1 -0 -2 1 1 -1 -2 2 -0 -1 1 -2 -1 0 1 1 3 5 6 3 0 2 -0 -1 -4
-0 -1 1 2 0 -1 -1 -1 -2 -2 0 -1 -1 -2 -0 -1 -0 -0 -1 -3 -1 -2 -1 -0 0 -1 1 1 -1 -2 0 0 1 2 -1 -1 -1 -4 -1 -0 3 1 -3 -1 0 -0 2
0 3 -1 -1 1 2 1 -1 0 -2 -1 0 -2 -2 -0 -2 -2 1 -1 -1 -2 -0 -1 -1 -1 3 -1 -0 -1 0 -1 -1 -1 -0 1 0 1 -2 -2 -0 -1 0 2 3 2 1 -0
0 -0 1 0 -1 0 2 -1 -2 1 -1 -0 2 -3 -3 -2 -0 0 -1 -1 1 -0 -1 -2 -0 -2 3 0 0 -0 -0 -2 -1 -0 -1 -1 -0 1 -2 1 1 0 -1 -3 -2 1 2
-0 -2 -4 0 1 -0 0 2 -0 2 -2 2 -0 -1 -3 -2 -3 -2 1 0 0 4 -1 3 -3 1 -2 0 3 -1 0 1 -0 -2 -1 0 -2 -2 1 1 -0 -0 2 3 1 4 -3
4 1 -1 1 -1 -0 2 0 4 1 -2 -0 2 0 1 -3 -0 -0 2 -2 1 1 3 0 3 0 -1 -1 -2 2 4 2 1 2 0 -1 -2 -2 -5 -2 -2 -5 1 0 -1 -2 -4
3 3 -1 0 1 -2 1 0 0 2 1 -0 5 1 -1 -3 -3 -0 -2 -1 0 3 2 -1 2 3 2 -1 -0 -1 1 3 3 1 1 0 -0 0 -3 0 0 -3 -1 -1 1 -0 1
6 3 3 2 2 3 1 -1 -0 1 2 -1 2 4 -1 -8 -2 2 -5 -2 -1 1 -1 2 -0 1 0 1 -1 -2 -2 -1 0 3 3 -0 1 1 -3 -1 -5 -0 -1 0 0 0 -0
1 5 4 2 -0 2 4 3 -2 -2 4 1 4 1 3 -8 -0 -5 -3 -2 -1 1 -2 3 0 -0 -1 3 -3 -1 -4 -3 -2 1 1 0 1 -2 -1 -1 -6 0 1 3 2 -1 -1
-4 4 2 4 2 1 3 6 3 -2 2 1 3 4 1 -1 -9 -3 -2 1 -3 -0 -1 -1 1 1 1 1 3 -1 -3 -1 0 0 1 -0 1 1 1 -0 -1 -1 -1 -2 -2 -8 -2
5 -0 8 1 3 2 2 4 4 -2 2 4 -1 4 0 1 -2 -3 -3 -0 1 -1 -2 2 2 1 2 -0 4 0 -3 -1 -3 -2 -1 1 1 -1 2 -3 -8 -1 -1 0 -1 -4 -2
-4 -0 -0 6 4 2 2 4 4 1 2 12 -6 6 -1 -1 3 -2 -3 2 0 -0 -3 4 2 0 -0 2 -0 -0 1 1 -0 -1 -0 1 -1 -3 1 -0 -11 -2 -0 -3 4 2 -4
19 21 -4 6 4 5 1 4 4 2 3 1 -1 3 3 -1 -2 -3 1 3 -3 1 1 -0 0 1 -3 2 3 2 1 0 2 -3 1 -6 -1 1 -1 -0 1 9 4 3 -1 -1 -0
Height
3162 3162 3161 3159 3158 3156 3154 3152 3149 3146 3143 3140 3137 3134 3130 3127 3125 3123 3122 3118 3114 3109 3103 3097 3093 3090 3087 3085 3083 3080 3078 3075 3074 3072 3070 3070 3070 3073 3074 3076 3079 3079 3082 3086 3089 3094 3097
3163 3162 3161 3159 3158 3156 3154 3152 3150 3146 3143 3140 3136 3133 3129 3127 3124 3123 3121 3119 3115 3109 3104 3098 3093 3090 3087 3086 3083 3080 3077 3075 3074 3072 3069 3069 3070 3072 3073 3074 3076 3077 3080 3084 3086 3091 3094
3163 3163 3160 3159 3159 3157 3154 3152 3150 3147 3143 3140 3136 3133 3129 3126 3124 3122 3121 3119 3115 3111 3105 3098 3094 3091 3089 3087 3083 3080 3077 3076 3074 3072 3069 3069 3070 3071 3071 3073 3075 3075 3077 3080 3083 3088 3091
3163 3163 3161 3160 3159 3157 3155 3152 3149 3147 3143 3140 3136 3133 3129 3126 3123 3121 3120 3118 3116 3112 3106 3100 3095 3093 3090 3086 3082 3080 3079 3077 3074 3072 3070 3069 3069 3070 3071 3073 3073 3075 3075 3077 3079 3083 3088
3163 3162 3161 3160 3158 3156 3154 3152 3149 3147 3143 3140 3136 3132 3129 3126 3123 3120 3119 3117 3116 3113 3108 3103 3099 3095 3091 3087 3084 3082 3080 3078 3075 3072 3070 3069 3070 3070 3070 3071 3072 3073 3072 3075 3080 3084 3086
3163 3162 3160 3160 3158 3156 3154 3152 3149 3147 3143 3140 3136 3133 3129 3125 3122 3119 3118 3117 3115 3114 3110 3105 3101 3098 3095 3091 3086 3083 3081 3079 3076 3074 3072 3070 3070 3070 3068 3071 3072 3072 3075 3077 3080 3084 3085
3162 3162 3160 3159 3158 3156 3154 3151 3149 3146 3144 3140 3136 3133 3130 3126 3122 3119 3117 3116 3117 3115 3111 3107 3105 3099 3097 3094 3089 3085 3083 3082 3079 3078 3076 3075 3074 3072 3071 3073 3074 3075 3077 3080 3082 3084 3086
3161 3161 3160 3158 3157 3155 3154 3151 3149 3146 3143 3140 3136 3133 3130 3127 3122 3119 3117 3115 3114 3115 3112 3109 3106 3102 3099 3096 3093 3089 3087 3085 3083 3082 3081 3081 3078 3078 3078 3078 3078 3079 3080 3082 3083 3084 3087
3161 3159 3159 3157 3156 3155 3153 3151 3149 3146 3143 3140 3137 3133 3130 3127 3123 3120 3117 3115 3113 3112 3112 3110 3107 3104 3100 3099 3095 3093 3091 3088 3086 3085 3083 3082 3082 3081 3080 3080 3080 3080 3082 3083 3085 3086 3087
3160 3159 3158 3156 3155 3153 3152 3150 3148 3145 3142 3139 3137 3133 3130 3127 3125 3120 3117 3115 3112 3111 3112 3112 3108 3106 3103 3099 3097 3095 3094 3094 3090 3089 3086 3085 3084 3083 3083 3081 3081 3081 3082 3085 3086 3087 3089
3160 3158 3157 3156 3154 3152 3151 3149 3147 3145 3142 3139 3137 3134 3130 3126 3124 3120 3119 3115 3112 3112 3113 3112 3108 3107 3104 3102 3101 3098 3096 3095 3093 3090 3089 3088 3086 3085 3084 3083 3083 3084 3084 3085 3087 3089 3090
3159 3158 3156 3154 3153 3151 3149 3148 3146 3144 3142 3139 3136 3134 3130 3127 3124 3121 3118 3115 3114 3114 3111 3111 3109 3107 3105 3103 3101 3099 3097 3096 3094 3092 3091 3090 3088 3087 3085 3084 3084 3084 3085 3087 3088 3090 3091
3156 3156 3155 3153 3151 3150 3148 3147 3145 3144 3141 3139 3136 3134 3131 3128 3125 3121 3118 3117 3116 3112 3114 3111 3109 3106 3104 3103 3102 3101 3099 3097 3095 3095 3093 3092 3091 3089 3087 3086 3086 3086 3087 3089 3092 3093 3092
3153 3153 3152 3151 3150 3149 3147 3145 3144 3143 3141 3138 3136 3134 3132 3128 3126 3122 3119 3117 3115 3114 3111 3109 3108 3107 3104 3103 3102 3101 3100 3099 3097 3095 3094 3093 3093 3091 3091 3090 3089 3089 3090 3090 3094 3095 3090
3149 3149 3149 3148 3148 3147 3145 3144 3142 3141 3140 3138 3135 3133 3132 3129 3126 3123 3122 3118 3116 3114 3113 3109 3107 3106 3105 3102 3102 3100 3099 3099 3097 3095 3095 3094 3094 3092 3091 3092 3093 3092 3091 3091 3089 3090 3090
3144 3145 3145 3145 3144 3144 3143 3141 3140 3139 3138 3137 3135 3133 3131 3129 3126 3124 3123 3120 3117 3114 3112 3111 3108 3106 3105 3103 3102 3100 3099 3099 3098 3096 3096 3095 3093 3092 3091 3092 3092 3091 3090 3089 3088 3091 3090
3138 3139 3140 3140 3140 3140 3140 3139 3138 3137 3136 3135 3134 3132 3131 3128 3126 3125 3123 3120 3117 3115 3113 3111 3109 3107 3105 3103 3102 3101 3101 3099 3097 3097 3096 3095 3095 3093 3091 3089 3088 3089 3087 3088 3088 3088 3087
3130 3132 3134 3135 3135 3135 3135 3135 3135 3134 3134 3132 3131 3131 3129 3127 3127 3124 3122 3120 3118 3115 3113 3111 3108 3107 3105 3103 3102 3101 3100 3099 3097 3096 3095 3095 3093 3091 3091 3089 3088 3088 3088 3087 3088 3086 3083
3122 3124 3127 3129 3130 3130 3130 3130 3130 3130 3130 3129 3128 3127 3127 3126 3124 3122 3120 3118 3116 3114 3113 3110 3108 3106 3105 3103 3103 3101 3099 3098 3097 3096 3095 3094 3092 3090 3088 3090 3087 3087 3087 3087 3087 3086 3083
3114 3116 3118 3121 3122 3124 3125 3125 3125 3125 3125 3126 3125 3124 3123 3122 3121 3120 3118 3116 3113 3111 3110 3109 3107 3106 3104 3102 3102 3100 3099 3098 3096 3095 3094 3094 3091 3090 3089 3088 3087 3086 3085 3085 3085 3084 3081
3103 3107 3110 3112 3115 3116 3117 3118 3119 3120 3119 3120 3120 3118 3118 3118 3117 3116 3115 3113 3110 3109 3107 3106 3104 3103 3103 3102 3099 3098 3098 3097 3095 3094 3093 3092 3090 3088 3086 3085 3083 3082 3082 3082 3081 3082 3081
3090 3094 3098 3103 3106 3108 3110 3110 3111 3113 3113 3114 3114 3114 3113 3113 3113 3111 3110 3108 3106 3105 3104 3102 3102 3101 3100 3099 3099 3097 3096 3095 3094 3092 3092 3091 3088 3085 3082 3080 3079 3077 3077 3077 3077 3078 3076
3079 3083 3087 3091 3095 3099 3101 3103 3103 3105 3106 3106 3106 3107 3107 3107 3108 3107 3105 3104 3101 3100 3100 3098 3098 3097 3096 3097 3096 3095 3093 3092 3090 3089 3088 3088 3086 3084 3079 3078 3077 3074 3071 3071 3072 3074 3075
3064 3070 3075 3079 3083 3088 3091 3094 3095 3097 3098 3100 3100 3101 3101 3101 3101 3101 3099 3098 3097 3096 3095 3094 3094 3093 3094 3092 3092 3091 3091 3088 3086 3085 3085 3084 3084 3084 3079 3077 3078 3072 3071 3071 3071 3072 3071
3048 3055 3062 3067 3072 3076 3080 3082 3086 3087 3089 3091 3093 3094 3093 3093 3095 3095 3094 3092 3091 3090 3090 3090 3089 3090 3089 3089 3088 3087 3086 3084 3081 3080 3080 3080 3081 3082 3080 3077 3073 3070 3068 3068 3069 3070 3070
3034 3040 3047 3053 3060 3064 3068 3071 3075 3077 3080 3083 3085 3085 3085 3085 3088 3087 3087 3086 3085 3085 3084 3084 3084 3084 3084 3084 3084 3083 3082 3081 3079 3078 3076 3077 3078 3080 3078 3078 3074 3069 3068 3068 3067 3067 3067
3019 3028 3033 3040 3046 3053 3056 3059 3064 3067 3069 3073 3076 3077 3077 3077 3079 3079 3080 3080 3079 3080 3080 3079 3078 3079 3079 3079 3079 3078 3077 3077 3077 3075 3074 3074 3075 3075 3075 3075 3070 3067 3067 3067 3069 3071 3066
3006 3015 3020 3025 3034 3040 3045 3047 3053 3057 3058 3061 3067 3068 3070 3069 3071 3072 3072 3074 3073 3074 3075 3076 3076 3074 3075 3075 3075 3074 3073 3072 3071 3070 3071 3072 3072 3072 3072 3072 3068 3065 3066 3068 3066 3063 3063
2993 3002 3008 3013 3021 3027 3032 3037 3042 3047 3050 3052 3057 3060 3061 3062 3064 3065 3064 3065 3067 3067 3069 3069 3070 3069 3069 3070 3071 3070 3069 3068 3066 3066 3067 3069 3069 3069 3070 3066 3064 3063 3063 3063 3061 3059 3057